Adriatic Sea — WDB5553 — position and weather

sailwx.info

Track history (hours):
 
Tides and Currents Weather Stations Pressure Air Temp Water Temp Dewpoint Dewpoint Depression Visibility Wind Speed Wind Dir Waves Ship Positions

Adriatic Sea

Owner: Kirby Offshore Marine, LLC, Seattle, WA. More information available from US FCC via Universal Licensing System and Coast Guard Vessel Documentation Center.

Last reported at 2014-Nov-28 13:22 UTC. Time now 2014-Nov-28 14:34 UTC.
Position N 48°44' W 122°32'.

Length 42 m.

Type: Tug. MMSI: 366910890.

Date/timePositionNaut miles runAvg speedWind from/ knotsBaromVisibWave heightAir tempDewpointWater temp
2014-Nov-28 13:22N 48°44' W 122°32'0 0.1
2014-Nov-28 09:28N 48°44' W 122°32'0 0.0
2014-Nov-27 21:15N 48°44' W 122°32'0 0.0
2014-Nov-27 20:33N 48°44' W 122°32'0 0.0
2014-Nov-27 18:27N 48°44' W 122°32'0 0.0
2014-Nov-27 14:24N 48°44' W 122°32'0 0.0
2014-Nov-27 11:21N 48°44' W 122°32'0 0.0
2014-Nov-27 09:33N 48°44' W 122°32'0 0.0
2014-Nov-26 15:20N 48°44' W 122°32'0 0.1
2014-Nov-26 14:11N 48°44' W 122°32'0 0.1
2014-Nov-26 13:32N 48°44' W 122°32'0 0.0
2014-Nov-26 12:32N 48°44' W 122°32'0 0.0
2014-Nov-26 11:14N 48°44' W 122°32'0 0.0
2014-Nov-26 10:26N 48°44' W 122°32'0 0.0
2014-Nov-26 09:32N 48°44' W 122°32'0 0.0
2014-Nov-26 08:32N 48°44' W 122°32'0 0.0
2014-Nov-25 23:29N 48°44' W 122°32'0 0.0
2014-Nov-25 21:08N 48°44' W 122°32'0 0.0
2014-Nov-25 20:31N 48°44' W 122°32'0 0.0
2014-Nov-25 19:27N 48°44' W 122°32'0 0.0
2014-Nov-25 18:28N 48°44' W 122°32'0 0.0
2014-Nov-25 17:33N 48°44' W 122°32'0 0.0
2014-Nov-25 16:33N 48°44' W 122°32'0 0.0
2014-Nov-25 15:33N 48°44' W 122°32'0 0.0
2014-Nov-25 14:33N 48°44' W 122°32'2 1.7
2014-Nov-25 13:33N 48°42' W 122°33'5 5.3
2014-Nov-25 12:33N 48°39' W 122°39'6 5.8
2014-Nov-25 11:33N 48°43' W 122°45'6 0.4
2014-Nov-24 19:33N 48°50' W 122°43'0 0.1
2014-Nov-24 18:33N 48°50' W 122°43'6 6.2
2014-Nov-24 17:33N 48°43' W 122°44'8 7.7
2014-Nov-24 16:33N 48°37' W 122°39'2 1.5
2014-Nov-24 15:31N 48°35' W 122°38'0 0.0
2014-Nov-24 14:31N 48°35' W 122°38'0 0.0
2014-Nov-24 13:31N 48°35' W 122°38'0 0.0
2014-Nov-24 12:28N 48°35' W 122°38'0 0.0
2014-Nov-24 11:28N 48°35' W 122°38'0 0.0
2014-Nov-24 10:28N 48°35' W 122°38'0 0.0
2014-Nov-24 09:19N 48°35' W 122°38'0 0.0
2014-Nov-24 08:31N 48°35' W 122°38'0 0.1
2014-Nov-24 07:31N 48°35' W 122°38'0 0.0
2014-Nov-24 06:34N 48°35' W 122°38'0 0.0
2014-Nov-24 05:33N 48°35' W 122°38'0 0.0
2014-Nov-24 04:33N 48°35' W 122°38'0 0.0
2014-Nov-24 03:33N 48°35' W 122°38'0 0.0
2014-Nov-24 02:27N 48°35' W 122°38'0 0.0
2014-Nov-24 01:30N 48°35' W 122°38'0 0.1
2014-Nov-24 00:30N 48°35' W 122°38'0 0.0
2014-Nov-23 23:30N 48°35' W 122°38'0 0.0
2014-Nov-23 22:33N 48°35' W 122°38'0 0.0
2014-Nov-23 21:21N 48°35' W 122°38'0 0.1
2014-Nov-23 20:33N 48°35' W 122°38'0 0.0
2014-Nov-23 19:33N 48°35' W 122°38'0 0.0
2014-Nov-23 18:33N 48°35' W 122°38'0 0.0
2014-Nov-23 17:33N 48°35' W 122°38'0 0.0
2014-Nov-23 16:30N 48°35' W 122°38'0 0.0
2014-Nov-23 15:33N 48°35' W 122°38'0 0.0
2014-Nov-23 14:30N 48°35' W 122°38'0 0.0
2014-Nov-23 13:33N 48°35' W 122°38'0 0.0
2014-Nov-23 12:27N 48°35' W 122°38'0 0.0
2014-Nov-23 11:21N 48°35' W 122°38'0 0.0
2014-Nov-23 10:33N 48°35' W 122°38'0 0.0
2014-Nov-23 09:27N 48°35' W 122°38'0 0.0
2014-Nov-23 08:33N 48°35' W 122°38'0 0.0
2014-Nov-23 07:21N 48°35' W 122°38'0 0.1
2014-Nov-23 06:33N 48°35' W 122°38'0 0.0
2014-Nov-23 05:33N 48°35' W 122°38'0 0.0
2014-Nov-23 04:33N 48°35' W 122°38'0 0.0
2014-Nov-23 03:33N 48°35' W 122°38'0 0.0
2014-Nov-23 02:33N 48°35' W 122°38'0 0.0
2014-Nov-23 01:33N 48°35' W 122°38'0 0.0
2014-Nov-23 00:27N 48°35' W 122°38'0 0.0
2014-Nov-22 23:30N 48°35' W 122°38'0 0.0
2014-Nov-22 22:30N 48°35' W 122°38'0 0.0
2014-Nov-22 21:30N 48°35' W 122°38'0 0.1
2014-Nov-22 20:33N 48°35' W 122°38'0 0.1
2014-Nov-22 19:27N 48°35' W 122°38'0 0.1
2014-Nov-22 18:32N 48°35' W 122°38'0 0.0
2014-Nov-22 17:32N 48°35' W 122°38'0 0.0
2014-Nov-22 16:29N 48°35' W 122°38'0 0.0
2014-Nov-22 15:32N 48°35' W 122°38'0 0.0
2014-Nov-22 14:32N 48°35' W 122°38'0 0.1
2014-Nov-22 13:32N 48°35' W 122°38'0 0.1
2014-Nov-22 12:14N 48°35' W 122°38'0 0.2
2014-Nov-22 11:32N 48°35' W 122°38'0 0.1
2014-Nov-22 10:32N 48°35' W 122°38'0 0.0
2014-Nov-22 09:11N 48°35' W 122°38'0 0.1
2014-Nov-22 08:26N 48°35' W 122°38'0 0.0
2014-Nov-22 07:32N 48°35' W 122°38'0 0.0
2014-Nov-22 06:33N 48°35' W 122°38'1 1.2
2014-Nov-22 05:47N 48°35' W 122°36'1 4.0
2014-Nov-22 05:33N 48°36' W 122°35'6 5.6
2014-Nov-22 04:33N 48°39' W 122°42'8 7.7
2014-Nov-22 03:33N 48°43' W 122°52'3 2.7
2014-Nov-22 02:33N 48°43' W 122°48'2 2.1
2014-Nov-22 01:33N 48°44' W 122°50'1 1.5
2014-Nov-22 00:33N 48°43' W 122°51'3 2.5
2014-Nov-21 23:33N 48°44' W 122°47'3 3.0
2014-Nov-21 22:33N 48°43' W 122°52'3 2.6
2014-Nov-21 21:33N 48°43' W 122°48'2 2.3
2014-Nov-21 20:32N 48°44' W 122°51'2 1.7
2014-Nov-21 19:33N 48°43' W 122°51'4 3.8
2014-Nov-21 18:33N 48°43' W 122°45'6 6.2
2014-Nov-21 17:33N 48°39' W 122°39'4 3.7
2014-Nov-21 16:33N 48°40' W 122°33'4 3.6
2014-Nov-21 15:31N 48°44' W 122°31'0 0.1
2014-Nov-21 13:28N 48°44' W 122°31'0 0.0
2014-Nov-21 12:10N 48°44' W 122°32'0 0.0
2014-Nov-21 11:31N 48°44' W 122°32'0 0.0
2014-Nov-21 10:28N 48°44' W 122°32'0 0.0
2014-Nov-21 04:22N 48°44' W 122°32'0 0.0
2014-Nov-20 09:03N 48°44' W 122°32'0 0.1
2014-Nov-20 08:33N 48°44' W 122°31'0 0.0
2014-Nov-20 07:21N 48°44' W 122°31'0 0.0
2014-Nov-20 06:27N 48°44' W 122°31'0 0.0
2014-Nov-20 05:15N 48°44' W 122°31'0 0.0
2014-Nov-20 04:21N 48°44' W 122°31'0 0.0
2014-Nov-20 03:33N 48°44' W 122°31'0 0.0
2014-Nov-20 02:33N 48°44' W 122°31'0 0.0
2014-Nov-20 01:27N 48°44' W 122°31'0 0.0
2014-Nov-19 17:27N 48°44' W 122°31'0 0.0
2014-Nov-19 15:12N 48°44' W 122°32'0 0.0
2014-Nov-19 14:33N 48°44' W 122°32'0 0.0
2014-Nov-19 13:33N 48°44' W 122°32'0 0.0
2014-Nov-19 12:24N 48°44' W 122°32'0 0.0
2014-Nov-19 11:30N 48°44' W 122°32'0 0.0
2014-Nov-19 09:33N 48°44' W 122°32'0 0.0
2014-Nov-19 08:30N 48°44' W 122°32'0 0.0
2014-Nov-19 07:33N 48°44' W 122°32'0 0.0
2014-Nov-19 05:33N 48°44' W 122°32'0 0.0
2014-Nov-19 04:33N 48°44' W 122°32'0 0.0
2014-Nov-19 03:33N 48°44' W 122°32'0 0.0
2014-Nov-19 02:33N 48°44' W 122°32'0 0.0
2014-Nov-19 01:33N 48°44' W 122°31'0 0.0
2014-Nov-19 00:33N 48°44' W 122°31'0 0.1
2014-Nov-18 23:33N 48°44' W 122°32'0 0.0
2014-Nov-18 22:32N 48°44' W 122°32'0 0.0
2014-Nov-18 21:32N 48°44' W 122°32'0 0.0
2014-Nov-18 19:23N 48°44' W 122°32'0 0.0
2014-Nov-18 18:29N 48°44' W 122°32'0 0.0
2014-Nov-18 17:26N 48°44' W 122°32'0 0.0
2014-Nov-18 16:32N 48°44' W 122°32'0 0.0
2014-Nov-18 15:29N 48°44' W 122°32'0 0.0
2014-Nov-18 14:32N 48°44' W 122°32'0 0.0
2014-Nov-18 13:23N 48°44' W 122°32'  
Track history (hours):
 
Tides and Currents Weather Stations Pressure Air Temp Water Temp Dewpoint Dewpoint Depression Visibility Wind Speed Wind Dir Waves Ship Positions

Adriatic Sea

Owner: Kirby Offshore Marine, LLC, Seattle, WA. More information available from US FCC via Universal Licensing System and Coast Guard Vessel Documentation Center.

Last reported at 2014-Nov-28 13:22 UTC. Time now 2014-Nov-28 14:34 UTC.
Position N 48°44' W 122°32'.

Length 42 m.

Type: Tug. MMSI: 366910890.

Date/timePositionNaut miles runAvg speedWind from/ knotsBaromVisibWave heightAir tempDewpointWater temp
2014-Nov-28 13:22N 48°44' W 122°32'0 0.1
2014-Nov-28 09:28N 48°44' W 122°32'0 0.0
2014-Nov-27 21:15N 48°44' W 122°32'0 0.0
2014-Nov-27 20:33N 48°44' W 122°32'0 0.0
2014-Nov-27 18:27N 48°44' W 122°32'0 0.0
2014-Nov-27 14:24N 48°44' W 122°32'0 0.0
2014-Nov-27 11:21N 48°44' W 122°32'0 0.0
2014-Nov-27 09:33N 48°44' W 122°32'0 0.0
2014-Nov-26 15:20N 48°44' W 122°32'0 0.1
2014-Nov-26 14:11N 48°44' W 122°32'0 0.1
2014-Nov-26 13:32N 48°44' W 122°32'0 0.0
2014-Nov-26 12:32N 48°44' W 122°32'0 0.0
2014-Nov-26 11:14N 48°44' W 122°32'0 0.0
2014-Nov-26 10:26N 48°44' W 122°32'0 0.0
2014-Nov-26 09:32N 48°44' W 122°32'0 0.0
2014-Nov-26 08:32N 48°44' W 122°32'0 0.0
2014-Nov-25 23:29N 48°44' W 122°32'0 0.0
2014-Nov-25 21:08N 48°44' W 122°32'0 0.0
2014-Nov-25 20:31N 48°44' W 122°32'0 0.0
2014-Nov-25 19:27N 48°44' W 122°32'0 0.0
2014-Nov-25 18:28N 48°44' W 122°32'0 0.0
2014-Nov-25 17:33N 48°44' W 122°32'0 0.0
2014-Nov-25 16:33N 48°44' W 122°32'0 0.0
2014-Nov-25 15:33N 48°44' W 122°32'0 0.0
2014-Nov-25 14:33N 48°44' W 122°32'2 1.7
2014-Nov-25 13:33N 48°42' W 122°33'5 5.3
2014-Nov-25 12:33N 48°39' W 122°39'6 5.8
2014-Nov-25 11:33N 48°43' W 122°45'6 0.4
2014-Nov-24 19:33N 48°50' W 122°43'0 0.1
2014-Nov-24 18:33N 48°50' W 122°43'6 6.2
2014-Nov-24 17:33N 48°43' W 122°44'8 7.7
2014-Nov-24 16:33N 48°37' W 122°39'2 1.5
2014-Nov-24 15:31N 48°35' W 122°38'0 0.0
2014-Nov-24 14:31N 48°35' W 122°38'0 0.0
2014-Nov-24 13:31N 48°35' W 122°38'0 0.0
2014-Nov-24 12:28N 48°35' W 122°38'0 0.0
2014-Nov-24 11:28N 48°35' W 122°38'0 0.0
2014-Nov-24 10:28N 48°35' W 122°38'0 0.0
2014-Nov-24 09:19N 48°35' W 122°38'0 0.0
2014-Nov-24 08:31N 48°35' W 122°38'0 0.1
2014-Nov-24 07:31N 48°35' W 122°38'0 0.0
2014-Nov-24 06:34N 48°35' W 122°38'0 0.0
2014-Nov-24 05:33N 48°35' W 122°38'0 0.0
2014-Nov-24 04:33N 48°35' W 122°38'0 0.0
2014-Nov-24 03:33N 48°35' W 122°38'0 0.0
2014-Nov-24 02:27N 48°35' W 122°38'0 0.0
2014-Nov-24 01:30N 48°35' W 122°38'0 0.1
2014-Nov-24 00:30N 48°35' W 122°38'0 0.0
2014-Nov-23 23:30N 48°35' W 122°38'0 0.0
2014-Nov-23 22:33N 48°35' W 122°38'0 0.0
2014-Nov-23 21:21N 48°35' W 122°38'0 0.1
2014-Nov-23 20:33N 48°35' W 122°38'0 0.0
2014-Nov-23 19:33N 48°35' W 122°38'0 0.0
2014-Nov-23 18:33N 48°35' W 122°38'0 0.0
2014-Nov-23 17:33N 48°35' W 122°38'0 0.0
2014-Nov-23 16:30N 48°35' W 122°38'0 0.0
2014-Nov-23 15:33N 48°35' W 122°38'0 0.0
2014-Nov-23 14:30N 48°35' W 122°38'0 0.0
2014-Nov-23 13:33N 48°35' W 122°38'0 0.0
2014-Nov-23 12:27N 48°35' W 122°38'0 0.0
2014-Nov-23 11:21N 48°35' W 122°38'0 0.0
2014-Nov-23 10:33N 48°35' W 122°38'0 0.0
2014-Nov-23 09:27N 48°35' W 122°38'0 0.0
2014-Nov-23 08:33N 48°35' W 122°38'0 0.0
2014-Nov-23 07:21N 48°35' W 122°38'0 0.1
2014-Nov-23 06:33N 48°35' W 122°38'0 0.0
2014-Nov-23 05:33N 48°35' W 122°38'0 0.0
2014-Nov-23 04:33N 48°35' W 122°38'0 0.0
2014-Nov-23 03:33N 48°35' W 122°38'0 0.0
2014-Nov-23 02:33N 48°35' W 122°38'0 0.0
2014-Nov-23 01:33N 48°35' W 122°38'0 0.0
2014-Nov-23 00:27N 48°35' W 122°38'0 0.0
2014-Nov-22 23:30N 48°35' W 122°38'0 0.0
2014-Nov-22 22:30N 48°35' W 122°38'0 0.0
2014-Nov-22 21:30N 48°35' W 122°38'0 0.1
2014-Nov-22 20:33N 48°35' W 122°38'0 0.1
2014-Nov-22 19:27N 48°35' W 122°38'0 0.1
2014-Nov-22 18:32N 48°35' W 122°38'0 0.0
2014-Nov-22 17:32N 48°35' W 122°38'0 0.0
2014-Nov-22 16:29N 48°35' W 122°38'0 0.0
2014-Nov-22 15:32N 48°35' W 122°38'0 0.0
2014-Nov-22 14:32N 48°35' W 122°38'0 0.1
2014-Nov-22 13:32N 48°35' W 122°38'0 0.1
2014-Nov-22 12:14N 48°35' W 122°38'0 0.2
2014-Nov-22 11:32N 48°35' W 122°38'0 0.1
2014-Nov-22 10:32N 48°35' W 122°38'0 0.0
2014-Nov-22 09:11N 48°35' W 122°38'0 0.1
2014-Nov-22 08:26N 48°35' W 122°38'0 0.0
2014-Nov-22 07:32N 48°35' W 122°38'0 0.0
2014-Nov-22 06:33N 48°35' W 122°38'1 1.2
2014-Nov-22 05:47N 48°35' W 122°36'1 4.0
2014-Nov-22 05:33N 48°36' W 122°35'6 5.6
2014-Nov-22 04:33N 48°39' W 122°42'8 7.7
2014-Nov-22 03:33N 48°43' W 122°52'3 2.7
2014-Nov-22 02:33N 48°43' W 122°48'2 2.1
2014-Nov-22 01:33N 48°44' W 122°50'1 1.5
2014-Nov-22 00:33N 48°43' W 122°51'3 2.5
2014-Nov-21 23:33N 48°44' W 122°47'3 3.0
2014-Nov-21 22:33N 48°43' W 122°52'3 2.6
2014-Nov-21 21:33N 48°43' W 122°48'2 2.3
2014-Nov-21 20:32N 48°44' W 122°51'2 1.7
2014-Nov-21 19:33N 48°43' W 122°51'4 3.8
2014-Nov-21 18:33N 48°43' W 122°45'6 6.2
2014-Nov-21 17:33N 48°39' W 122°39'4 3.7
2014-Nov-21 16:33N 48°40' W 122°33'4 3.6
2014-Nov-21 15:31N 48°44' W 122°31'0 0.1
2014-Nov-21 13:28N 48°44' W 122°31'0 0.0
2014-Nov-21 12:10N 48°44' W 122°32'0 0.0
2014-Nov-21 11:31N 48°44' W 122°32'0 0.0
2014-Nov-21 10:28N 48°44' W 122°32'0 0.0
2014-Nov-21 04:22N 48°44' W 122°32'0 0.0
2014-Nov-20 09:03N 48°44' W 122°32'0 0.1
2014-Nov-20 08:33N 48°44' W 122°31'0 0.0
2014-Nov-20 07:21N 48°44' W 122°31'0 0.0
2014-Nov-20 06:27N 48°44' W 122°31'0 0.0
2014-Nov-20 05:15N 48°44' W 122°31'0 0.0
2014-Nov-20 04:21N 48°44' W 122°31'0 0.0
2014-Nov-20 03:33N 48°44' W 122°31'0 0.0
2014-Nov-20 02:33N 48°44' W 122°31'0 0.0
2014-Nov-20 01:27N 48°44' W 122°31'0 0.0
2014-Nov-19 17:27N 48°44' W 122°31'0 0.0
2014-Nov-19 15:12N 48°44' W 122°32'0 0.0
2014-Nov-19 14:33N 48°44' W 122°32'0 0.0
2014-Nov-19 13:33N 48°44' W 122°32'0 0.0
2014-Nov-19 12:24N 48°44' W 122°32'0 0.0
2014-Nov-19 11:30N 48°44' W 122°32'0 0.0
2014-Nov-19 09:33N 48°44' W 122°32'0 0.0
2014-Nov-19 08:30N 48°44' W 122°32'0 0.0
2014-Nov-19 07:33N 48°44' W 122°32'0 0.0
2014-Nov-19 05:33N 48°44' W 122°32'0 0.0
2014-Nov-19 04:33N 48°44' W 122°32'0 0.0
2014-Nov-19 03:33N 48°44' W 122°32'0 0.0
2014-Nov-19 02:33N 48°44' W 122°32'0 0.0
2014-Nov-19 01:33N 48°44' W 122°31'0 0.0
2014-Nov-19 00:33N 48°44' W 122°31'0 0.1
2014-Nov-18 23:33N 48°44' W 122°32'0 0.0
2014-Nov-18 22:32N 48°44' W 122°32'0 0.0
2014-Nov-18 21:32N 48°44' W 122°32'0 0.0
2014-Nov-18 19:23N 48°44' W 122°32'0 0.0
2014-Nov-18 18:29N 48°44' W 122°32'0 0.0
2014-Nov-18 17:26N 48°44' W 122°32'0 0.0
2014-Nov-18 16:32N 48°44' W 122°32'0 0.0
2014-Nov-18 15:29N 48°44' W 122°32'0 0.0
2014-Nov-18 14:32N 48°44' W 122°32'0 0.0
2014-Nov-18 13:23N 48°44' W 122°32'  

Dump ship's entire track history